| time (UTC) | temp C | wind direction | speed KPH | gust KPH | rain 1hr cm | rain 24hr cm | rain mn cm | humidity % | barometer mb |
| 20260831014550 | 13 | 327 | 0.0 | 0.0 | 0.00 | 0.00 | 0.00 | 89 | 1005.4 |
| 20260831013055 | 13 | 328 | 0.0 | 3.2 | 0.00 | 0.00 | 0.00 | 89 | 1005.6 |
| 20260831011549 | 13 | 329 | 1.6 | 4.8 | 0.00 | 0.00 | 0.00 | 88 | 1005.6 |
| 20260831010044 | 13 | 320 | 0.0 | 0.0 | 0.00 | 0.00 | 0.00 | 88 | 1005.6 |
| 20260831004543 | 13 | 320 | 0.0 | 3.2 | 0.00 | 0.00 | 0.00 | 88 | 1005.6 |
| 20260831003043 | 13 | 323 | 3.2 | 6.4 | 0.00 | 0.00 | 0.00 | 88 | 1005.7 |
| 20260831001541 | 13 | 296 | 0.0 | 0.0 | 0.00 | 0.00 | 0.00 | 88 | 1005.7 |
| 20260831000040 | 13 | 308 | 1.6 | 6.4 | 0.00 | 0.00 | 0.00 | 88 | 1005.9 |
| 20260830234544 | 13 | 309 | 3.2 | 8.0 | 0.00 | 0.00 | 0.00 | 88 | 1006.0 |
| 20260830233037 | 13 | 328 | 3.2 | 8.0 | 0.00 | 0.00 | 0.00 | 88 | 1005.9 |
| 20260830231541 | 13 | 338 | 3.2 | 8.0 | 0.00 | 0.00 | 0.00 | 87 | 1006.0 |
| 20260830230043 | 13 | 314 | 1.6 | 4.8 | 0.00 | 0.00 | 0.00 | 87 | 1006.0 |
| 20260830224534 | 13 | 305 | 1.6 | 4.8 | 0.00 | 0.00 | 0.00 | 87 | 1006.0 |
| 20260830223033 | 13 | 298 | 0.0 | 3.2 | 0.00 | 0.00 | 0.00 | 87 | 1006.0 |
| 20260830221532 | 13 | 298 | 0.0 | 0.0 | 0.00 | 0.00 | 0.00 | 87 | 1005.9 |
| 20260830220032 | 13 | 298 | 0.0 | 6.4 | 0.00 | 0.00 | 0.00 | 86 | 1005.9 |
| 20260830214529 | 13 | 279 | 1.6 | 4.8 | 0.00 | 0.00 | 0.00 | 86 | 1005.9 |
| 20260830213027 | 13 | 298 | 3.2 | 4.8 | 0.00 | 0.00 | 0.00 | 86 | 1005.8 |
| 20260830211527 | 13 | 288 | 0.0 | 4.8 | 0.00 | 0.00 | 0.00 | 85 | 1005.8 |
| 20260830210026 | 13 | 261 | 3.2 | 6.4 | 0.00 | 0.00 | 0.00 | 85 | 1005.7 |
| 20260830204526 | 13 | 280 | 3.2 | 6.4 | 0.00 | 0.00 | 0.00 | 85 | 1005.6 |
| 20260830203028 | 13 | 299 | 1.6 | 8.0 | 0.00 | 0.00 | 0.00 | 85 | 1005.6 |
| 20260830201534 | 14 | 314 | 6.4 | 14.5 | 0.00 | 0.00 | 0.00 | 85 | 1005.6 |
| 20260830200022 | 14 | 284 | 3.2 | 8.0 | 0.00 | 0.00 | 0.00 | 85 | 1005.6 |
| 20260830194520 | 14 | 318 | 3.2 | 8.0 | 0.00 | 0.00 | 0.00 | 84 | 1005.5 |
| 20260830193019 | 14 | 282 | 4.8 | 11.3 | 0.00 | 0.00 | 0.00 | 83 | 1005.4 |
| 20260830191523 | 14 | 267 | 0.0 | 3.2 | 0.00 | 0.00 | 0.00 | 83 | 1005.2 |
| 20260830190017 | 14 | 301 | 3.2 | 6.4 | 0.00 | 0.00 | 0.00 | 83 | 1005.1 |
| 20260830184514 | 14 | 300 | 1.6 | 6.4 | 0.00 | 0.00 | 0.00 | 83 | 1005.1 |
| 20260830183013 | 14 | 298 | 6.4 | 14.5 | 0.00 | 0.00 | 0.00 | 82 | 1005.0 |
| 20260830181511 | 14 | 254 | 3.2 | 12.9 | 0.00 | 0.00 | 0.00 | 83 | 1004.9 |
| 20260830180018 | 14 | 290 | 4.8 | 16.1 | 0.00 | 0.00 | 0.00 | 82 | 1004.7 |
| 20260830174510 | 14 | 297 | 6.4 | 14.5 | 0.00 | 0.00 | 0.00 | 82 | 1004.6 |
| 20260830173007 | 15 | 262 | 3.2 | 8.0 | 0.00 | 0.00 | 0.00 | 81 | 1004.5 |
| 20260830171506 | 15 | 304 | 6.4 | 12.9 | 0.00 | 0.00 | 0.00 | 81 | 1004.3 |
| 20260830170005 | 15 | 327 | 4.8 | 11.3 | 0.00 | 0.00 | 0.00 | 80 | 1004.3 |
| 20260830164503 | 15 | 305 | 3.2 | 8.0 | 0.00 | 0.00 | 0.00 | 81 | 1004.2 |
| 20260830163005 | 15 | 263 | 0.0 | 14.5 | 0.00 | 0.00 | 0.00 | 81 | 1004.1 |
| 20260830161606 | 15 | 319 | 6.4 | 12.9 | 0.00 | 0.00 | 0.00 | 80 | 1003.9 |
| 20260830160100 | 15 | 298 | 6.4 | 12.9 | 0.00 | 0.00 | 0.00 | 81 | 1003.9 |
| 20260830154558 | 15 | 297 | 4.8 | 12.9 | 0.00 | 0.00 | 0.00 | 82 | 1003.8 |
| 20260830153057 | 15 | 273 | 3.2 | 12.9 | 0.00 | 0.00 | 0.00 | 82 | 1003.8 |
| 20260830151602 | 15 | 312 | 6.4 | 12.9 | 0.00 | 0.00 | 0.00 | 81 | 1003.7 |
| 20260830150054 | 15 | 322 | 4.8 | 16.1 | 0.00 | 0.00 | 0.00 | 82 | 1003.6 |
| 20260830144553 | 15 | 309 | 6.4 | 12.9 | 0.00 | 0.00 | 0.00 | 82 | 1003.6 |
| 20260830143101 | 15 | 291 | 9.7 | 17.7 | 0.00 | 0.00 | 0.00 | 83 | 1003.6 |
| 20260830141556 | 15 | 259 | 4.8 | 14.5 | 0.00 | 0.00 | 0.00 | 83 | 1003.4 |
| 20260830140051 | 15 | 277 | 6.4 | 16.1 | 0.00 | 0.00 | 0.00 | 82 | 1003.4 |
| 20260830134553 | 15 | 302 | 6.4 | 14.5 | 0.00 | 0.00 | 0.00 | 82 | 1003.4 |
| 20260830133103 | 15 | 313 | 6.4 | 19.3 | 0.00 | 0.00 | 0.00 | 82 | 1003.1 |
| 20260830131545 | 15 | 293 | 9.7 | 19.3 | 0.00 | 0.00 | 0.00 | 82 | 1002.9 |
| 20260830130045 | 15 | 285 | 8.0 | 16.1 | 0.00 | 0.00 | 0.00 | 82 | 1002.9 |
| 20260830124545 | 15 | 267 | 4.8 | 12.9 | 0.00 | 0.03 | 0.00 | 83 | 1002.8 |
| 20260830123041 | 15 | 288 | 4.8 | 16.1 | 0.00 | 0.03 | 0.00 | 82 | 1002.6 |
| 20260830121540 | 15 | 265 | 4.8 | 12.9 | 0.00 | 0.03 | 0.00 | 81 | 1002.6 |
| 20260830120039 | 15 | 314 | 3.2 | 14.5 | 0.00 | 0.03 | 0.00 | 82 | 1002.5 |
| 20260830114554 | 15 | 336 | 4.8 | 17.7 | 0.00 | 0.46 | 0.00 | 83 | 1002.5 |
| 20260830113037 | 15 | 322 | 6.4 | 14.5 | 0.00 | 0.46 | 0.00 | 82 | 1002.5 |
| 20260830111537 | 15 | 331 | 6.4 | 14.5 | 0.00 | 0.46 | 0.00 | 83 | 1002.3 |
| 20260830110037 | 15 | 336 | 6.4 | 16.1 | 0.00 | 0.46 | 0.00 | 83 | 1002.2 |
| 20260830104537 | 15 | 309 | 8.0 | 19.3 | 0.00 | 0.51 | 0.00 | 83 | 1002.1 |
| 20260830103034 | 15 | 312 | 9.7 | 16.1 | 0.00 | 0.51 | 0.00 | 83 | 1002.1 |
| 20260830101532 | 15 | 307 | 3.2 | 9.7 | 0.00 | 0.51 | 0.00 | 84 | 1002.1 |
| 20260830100030 | 15 | 319 | 4.8 | 14.5 | 0.00 | 0.51 | 0.00 | 85 | 1002.0 |
| 20260830094534 | 15 | 323 | 6.4 | 14.5 | 0.00 | 0.51 | 0.00 | 85 | 1002.0 |
| 20260830093027 | 15 | 300 | 6.4 | 14.5 | 0.00 | 0.51 | 0.00 | 85 | 1001.8 |
| 20260830091526 | 15 | 290 | 8.0 | 16.1 | 0.00 | 0.51 | 0.00 | 85 | 1001.7 |
| 20260830090030 | 14 | 284 | 8.0 | 17.7 | 0.00 | 0.51 | 0.00 | 86 | 1001.6 |
| 20260830084524 | 14 | 283 | 3.2 | 12.9 | 0.00 | 0.51 | 0.00 | 88 | 1001.5 |
| 20260830083022 | 14 | 284 | 8.0 | 14.5 | 0.00 | 0.51 | 0.00 | 88 | 1001.6 |
| 20260830081521 | 14 | 329 | 4.8 | 16.1 | 0.00 | 0.51 | 0.00 | 89 | 1001.5 |
| 20260830080020 | 14 | 308 | 4.8 | 12.9 | 0.00 | 0.51 | 0.00 | 89 | 1001.4 |
| 20260830074520 | 14 | 290 | 4.8 | 11.3 | 0.00 | 0.51 | 0.00 | 89 | 1001.4 |
| 20260830073022 | 14 | 284 | 1.6 | 9.7 | 0.00 | 0.51 | 0.00 | 89 | 1001.2 |
| 20260830071516 | 14 | 290 | 1.6 | 9.7 | 0.00 | 0.51 | 0.00 | 90 | 1001.1 |
| 20260830070013 | 14 | 276 | 6.4 | 11.3 | 0.00 | 0.51 | 0.00 | 90 | 1001.0 |
| 20260830064514 | 14 | 315 | 3.2 | 6.4 | 0.00 | 0.51 | 0.00 | 91 | 1000.9 |
| 20260830063010 | 14 | 302 | 1.6 | 12.9 | 0.00 | 0.51 | 0.00 | 90 | 1000.8 |
| 20260830061514 | 14 | 279 | 0.0 | 4.8 | 0.00 | 0.51 | 0.00 | 91 | 1000.7 |
| 20260830060011 | 14 | 292 | 3.2 | 8.0 | 0.00 | 0.51 | 0.00 | 91 | 1000.5 |
| 20260830054509 | 14 | 308 | 3.2 | 12.9 | 0.00 | 0.99 | 0.00 | 91 | 1000.5 |
| 20260830053005 | 14 | 315 | 6.4 | 14.5 | 0.00 | 0.99 | 0.00 | 91 | 1000.4 |
| 20260830051504 | 14 | 315 | 1.6 | 12.9 | 0.00 | 0.99 | 0.00 | 91 | 1000.4 |
| 20260830050003 | 14 | 345 | 4.8 | 12.9 | 0.00 | 0.99 | 0.00 | 91 | 1000.3 |
| 20260830044502 | 14 | 303 | 3.2 | 16.1 | 0.00 | 1.14 | 0.00 | 91 | 1000.3 |
| 20260830043102 | 14 | 306 | 4.8 | 14.5 | 0.00 | 1.14 | 0.00 | 91 | 1000.3 |
| 20260830041603 | 14 | 311 | 8.0 | 16.1 | 0.00 | 1.14 | 0.00 | 91 | 1000.2 |
| 20260830040100 | 14 | 336 | 9.7 | 16.1 | 0.00 | 1.14 | 0.00 | 91 | 1000.1 |
| 20260830034558 | 14 | 315 | 3.2 | 9.7 | 0.00 | 1.27 | 0.00 | 91 | 1000.0 |
| 20260830033053 | 14 | 319 | 4.8 | 14.5 | 0.00 | 1.27 | 0.00 | 91 | 1000.0 |
| 20260830031552 | 14 | 321 | 3.2 | 8.0 | 0.00 | 1.27 | 0.00 | 91 | 1000.1 |
| 20260830030052 | 14 | 286 | 4.8 | 14.5 | 0.00 | 1.27 | 0.00 | 91 | 1000.0 |
| 20260830024549 | 14 | 332 | 4.8 | 16.1 | 0.00 | 1.37 | 0.00 | 92 | 1000.0 |
| 20260830023102 | 14 | 315 | 3.2 | 12.9 | 0.00 | 1.37 | 0.00 | 92 | 1000.0 |
| 20260830021547 | 14 | 297 | 4.8 | 9.7 | 0.00 | 1.37 | 0.00 | 92 | 1000.0 |
| 20260830020146 | 14 | 265 | 4.8 | 12.9 | 0.00 | 1.37 | 0.00 | 92 | 1000.0 |